User: anonymous   Login
Location: Theydon Bois
(51.6750°N, 0.1050°E)
Time: 18:32:19
(UTC+00:00)
Language:

Cosmos 1400 Rocket - Orbit

View from above orbital plane
View from above orbital plane
View from above satellite
View from above satellite

Ground track
Ground track

The orbit data is extracted from the following two-line orbital elements,

1 13403U 82079B   17351.88596550  .00000471  00000-0  29652-4 0  9990
2 13403  81.1715  58.9229 0033921  33.8475 326.4903 15.06750820924386
Epoch (UTC): 17 December 2017 21:15:47
Eccentricity: 0.0033921
inclination: 81.1715°
perigee height: 522 km
apogee height: 569 km
right ascension of ascending node: 58.9229°
argument of perigee: 33.8475°
revolutions per day: 15.06750820
mean anomaly at epoch: 326.4903°
orbit number at epoch: 92438

The dashed part of the orbit path shows where the satellite is in the earth's shadow,  

DLR